TimeEST,TemperatureF,Dew PointF,Humidity,Sea Level PressureIn,VisibilityMPH,Wind Direction,Wind SpeedMPH,Gust SpeedMPH,PrecipitationIn,Events,Conditions,WindDirDegrees,DateUTC
12:15 AM,25.3,24.4,96,30.19,10.0,Calm,Calm,-,N/A,,Clear,0,2013-02-26 05:15:00
12:35 AM,25.3,25.0,99,30.19,10.0,Calm,Calm,-,N/A,,Clear,0,2013-02-26 05:35:00
12:55 AM,23.9,23.7,99,30.18,10.0,Calm,Calm,-,N/A,,Clear,0,2013-02-26 05:55:00
1:15 AM,25.2,25.2,100,30.21,10.0,Calm,Calm,-,N/A,,Clear,0,2013-02-26 06:15:00
1:35 AM,24.6,24.6,100,30.21,10.0,Calm,Calm,-,N/A,,Clear,0,2013-02-26 06:35:00
1:55 AM,24.4,24.4,100,30.21,10.0,Calm,Calm,-,N/A,,Clear,0,2013-02-26 06:55:00
2:15 AM,24.6,24.6,100,30.20,10.0,Calm,Calm,-,N/A,,Clear,0,2013-02-26 07:15:00
2:35 AM,26.6,26.1,98,30.19,10.0,SE,4.6,-,N/A,,Clear,130,2013-02-26 07:35:00
2:55 AM,26.4,26.2,99,30.19,10.0,Calm,Calm,-,N/A,,Clear,0,2013-02-26 07:55:00
3:15 AM,27.3,26.8,98,30.18,10.0,Calm,Calm,-,N/A,,Clear,0,2013-02-26 08:15:00
3:35 AM,27.5,27.0,98,30.17,10.0,Calm,Calm,-,N/A,,Clear,0,2013-02-26 08:35:00
3:55 AM,26.2,26.2,100,30.17,10.0,Calm,Calm,-,N/A,,Clear,0,2013-02-26 08:55:00
4:15 AM,27.5,26.6,96,30.16,10.0,Calm,Calm,-,N/A,,Clear,0,2013-02-26 09:15:00
4:35 AM,27.0,27.0,100,30.16,10.0,Calm,Calm,-,N/A,,Clear,0,2013-02-26 09:35:00
4:55 AM,27.1,27.1,100,30.17,10.0,Calm,Calm,-,N/A,,Clear,0,2013-02-26 09:55:00
5:15 AM,27.5,27.5,100,30.17,10.0,Calm,Calm,-,N/A,,Clear,0,2013-02-26 10:15:00
5:35 AM,28.6,27.5,96,30.16,10.0,Calm,Calm,-,N/A,,Clear,0,2013-02-26 10:35:00
5:55 AM,28.0,27.7,99,30.16,10.0,Calm,Calm,-,N/A,,Clear,0,2013-02-26 10:55:00
6:15 AM,28.0,27.7,99,30.16,10.0,Calm,Calm,-,N/A,,Clear,0,2013-02-26 11:15:00
6:35 AM,27.9,27.9,100,30.17,10.0,Calm,Calm,-,N/A,,Clear,0,2013-02-26 11:35:00
6:55 AM,28.0,28.0,100,30.16,10.0,Calm,Calm,-,N/A,,Clear,0,2013-02-26 11:55:00
7:15 AM,29.3,28.4,96,30.16,10.0,Calm,Calm,-,N/A,,Clear,0,2013-02-26 12:15:00
7:35 AM,30.0,29.1,96,30.16,10.0,Calm,Calm,-,N/A,,Clear,0,2013-02-26 12:35:00
7:55 AM,31.8,29.3,90,30.15,10.0,NE,4.6,-,N/A,,Clear,40,2013-02-26 12:55:00
8:15 AM,32.0,29.7,91,30.15,10.0,NNE,3.5,-,N/A,,Scattered Clouds,30,2013-02-26 13:15:00
8:35 AM,32.2,30.2,92,30.16,10.0,Calm,Calm,-,N/A,,Mostly Cloudy,0,2013-02-26 13:35:00
8:55 AM,32.9,30.9,92,30.16,10.0,Calm,Calm,-,N/A,,Overcast,0,2013-02-26 13:55:00
9:15 AM,34.0,31.5,90,30.16,10.0,NE,3.5,-,N/A,,Overcast,40,2013-02-26 14:15:00
9:35 AM,34.7,32.0,90,30.16,10.0,NNE,3.5,-,N/A,,Overcast,30,2013-02-26 14:35:00
9:55 AM,35.6,32.0,87,30.15,10.0,NE,4.6,-,N/A,,Overcast,40,2013-02-26 14:55:00
10:15 AM,36.0,32.4,87,30.14,10.0,NE,3.5,-,N/A,,Overcast,40,2013-02-26 15:15:00
10:35 AM,36.7,33.3,87,30.13,10.0,NE,3.5,-,N/A,,Drizzle,50,2013-02-26 15:35:00
10:55 AM,36.7,34.7,93,30.12,10.0,NNE,4.6,-,N/A,,Drizzle,30,2013-02-26 15:55:00
11:15 AM,37.0,35.4,94,30.11,10.0,NNE,4.6,-,N/A,Rain,Light Rain,30,2013-02-26 16:15:00
11:35 AM,37.6,36.5,96,30.10,7.0,NNE,4.6,-,N/A,Rain,Light Rain,30,2013-02-26 16:35:00
11:55 AM,37.6,36.9,97,30.09,7.0,NNE,4.6,-,N/A,Rain,Light Rain,30,2013-02-26 16:55:00
12:15 PM,37.8,37.6,99,30.08,5.0,NNE,5.8,-,N/A,Rain,Light Rain,30,2013-02-26 17:15:00
12:35 PM,38.1,38.1,100,30.06,5.0,NE,6.9,-,N/A,Rain,Light Rain,40,2013-02-26 17:35:00
12:55 PM,38.5,38.5,100,30.03,5.0,NE,6.9,-,N/A,Rain,Light Rain,40,2013-02-26 17:55:00
1:15 PM,39.2,39.2,100,30.02,5.0,NE,9.2,-,N/A,Rain,Rain,50,2013-02-26 18:15:00
1:35 PM,39.2,39.2,100,30.00,5.0,NE,8.1,-,0.01,Rain,Light Rain,50,2013-02-26 18:35:00
1:55 PM,39.6,39.6,100,29.99,4.0,NE,6.9,-,0.02,Rain,Light Rain,50,2013-02-26 18:55:00
2:15 PM,39.7,39.7,100,29.96,4.0,NE,10.4,-,N/A,Rain,Light Rain,50,2013-02-26 19:15:00
2:35 PM,40.5,40.5,100,29.92,4.0,ENE,13.8,18.4,0.01,Rain,Light Rain,60,2013-02-26 19:35:00
2:55 PM,40.6,40.6,100,29.90,3.0,ENE,11.5,20.7,0.01,Rain,Light Rain,60,2013-02-26 19:55:00
3:15 PM,41.2,41.2,100,29.88,3.0,ENE,11.5,20.7,0.01,Rain,Light Rain,70,2013-02-26 20:15:00
3:35 PM,41.9,41.9,100,29.86,4.0,ENE,12.7,21.9,0.01,Rain,Light Rain,70,2013-02-26 20:35:00
3:55 PM,42.3,42.3,100,29.86,4.0,ENE,8.1,-,0.01,Rain,Light Rain,70,2013-02-26 20:55:00
4:15 PM,42.8,42.8,100,29.83,2.5,ENE,11.5,18.4,0.02,Rain,Rain,70,2013-02-26 21:15:00
4:35 PM,43.0,43.0,100,29.81,4.0,ENE,10.4,-,0.04,Rain,Light Rain,60,2013-02-26 21:35:00
4:55 PM,43.9,43.9,100,29.79,5.0,ENE,10.4,20.7,0.05,Rain,Rain,70,2013-02-26 21:55:00
5:15 PM,44.2,44.2,100,29.76,5.0,ENE,12.7,17.3,0.02,Rain,Rain,70,2013-02-26 22:15:00
5:35 PM,44.4,44.4,100,29.74,3.0,ENE,11.5,23.0,0.08,Rain,Rain,70,2013-02-26 22:35:00
5:55 PM,44.6,44.6,100,29.72,4.0,ENE,10.4,17.3,0.12,Rain,Rain,60,2013-02-26 22:55:00
6:15 PM,44.8,44.8,100,29.71,5.0,NE,9.2,-,0.02,Rain,Light Rain,50,2013-02-26 23:15:00
6:35 PM,45.1,45.1,100,29.72,3.0,ENE,8.1,-,0.09,Rain,Heavy Rain,60,2013-02-26 23:35:00
6:55 PM,45.3,45.3,100,29.70,4.0,ENE,13.8,-,0.17,Rain,Rain,70,2013-02-26 23:55:00
7:15 PM,45.5,45.5,100,29.69,5.0,ENE,11.5,16.1,0.03,Rain,Rain,70,2013-02-27 00:15:00
7:35 PM,45.3,45.3,100,29.70,2.5,North,4.6,-,0.13,Rain,Heavy Rain,10,2013-02-27 00:35:00
7:55 PM,45.0,45.0,100,29.73,3.0,Calm,Calm,-,0.21,Rain,Rain,0,2013-02-27 00:55:00
8:15 PM,44.8,44.8,100,29.71,5.0,NNW,5.8,-,0.04,Rain,Rain,330,2013-02-27 01:15:00
8:35 PM,44.8,44.8,100,29.71,5.0,North,4.6,-,0.05,Rain,Heavy Rain,360,2013-02-27 01:35:00
8:55 PM,44.8,44.8,100,29.69,7.0,NNE,9.2,-,0.06,Rain,Heavy Rain,20,2013-02-27 01:55:00
9:15 PM,44.6,44.6,100,29.68,7.0,NNE,8.1,-,0.03,Rain,Heavy Rain,30,2013-02-27 02:15:00
9:35 PM,44.6,44.6,100,29.65,7.0,NNE,11.5,16.1,0.03,Rain,Rain,30,2013-02-27 02:35:00
9:55 PM,44.6,44.6,100,29.65,7.0,North,8.1,-,0.03,,Drizzle,10,2013-02-27 02:55:00
10:15 PM,44.8,44.8,100,29.65,5.0,NNW,8.1,-,N/A,,Drizzle,340,2013-02-27 03:15:00
10:35 PM,44.6,44.6,100,29.63,4.0,NNE,8.1,-,0.01,,Drizzle,20,2013-02-27 03:35:00
10:55 PM,44.6,44.6,100,29.62,4.0,NNE,9.2,-,0.01,,Drizzle,20,2013-02-27 03:55:00
11:15 PM,44.6,44.6,100,29.61,4.0,North,4.6,-,N/A,,Light Drizzle,350,2013-02-27 04:15:00
11:35 PM,44.6,44.6,100,29.60,4.0,NNE,6.9,-,N/A,,Light Drizzle,20,2013-02-27 04:35:00
11:55 PM,44.6,44.6,100,29.60,4.0,NNW,5.8,-,N/A,Rain,Light Rain,330,2013-02-27 04:55:00